Regional Weather Roundup
Issued by NWS

Home | Current Version | Previous Version | Text Only | Print | Product List | Glossary On
Versions: 1 2 3 4 5 6 7 8 9 10 11 12 13 14 15 16 17 18 19 20 21 22 23 24 25 26 27 28 29 30 31 32 33 34 35 36 37 38 39 40 41 42 43 44 45 46 47 48 49 50
000
ASUS46 KLOX 040012
RWRCA

SOUTHERN CALIFORNIA WEATHER ROUNDUP
NATIONAL WEATHER SERVICE OXNARD CALIFORNIA
500 PM PDT SUN MAY 03 2015

NOTE: "FAIR" INDICATES FEW OR NO CLOUDS BELOW 12,000 FEET WITH NO
SIGNIFICANT WEATHER AND/OR OBSTRUCTIONS TO VISIBILITY.

  -  STATIONS PRECEEDED BY AN ASTERISK (*) ARE NOT NWS OR FAA
     STATIONS AND ARE NOT SUBJECT TO NWS AND FAA QUALITY CONTROL.

CAZ041-042-087-040100-
LA AND ORANGE COUNTY COASTAL AREAS


CITY           SKY/WX    TMP DP  RH WIND       PRES   REMARKS
L.A. DOWNTOWN  SUNNY     66  52  60 VRB3      29.87F
L.A. AIRPORT   MOSUNNY   61  52  72 W20       29.89F
LONG BEACH     SUNNY     67  52  58 W16       29.87F

CITY           SKY/WX    TMP DP  RH WIND       PRES   REMARKS
AVALON           N/A     68 N/A N/A MISG        N/A
FULLERTON      SUNNY     71  50  47 W9        29.85S
*GETTY CENTER    N/A     64  50  59 S10         N/A
HAWTHORNE      SUNNY     66  51  58 W15G21    29.88F
*LEO CARRILLO    N/A     63  50  63 W14         N/A
*LOS ALAMITOS  FAIR      69  54  57 W10       29.86F
*REDONDO BEACH   N/A     63  53  69 SW5       29.89S
SANTA ANA      MOSUNNY   67  51  56 W9        29.86F
STA MONICA APT SUNNY     63  50  62 SW15G22   29.88F
TORRANCE       MOSUNNY   64  55  72 W17       29.89F
*UCLA            N/A     61  50  67 SW14      29.84F

$$

CAZ547-548-048-040100-
LA COUNTY VALLEYS AND INLAND EMPIRE


CITY           SKY/WX    TMP DP  RH WIND       PRES   REMARKS
BURBANK        SUNNY     69  51  52 S8        29.85F
VAN NUYS       SUNNY     73  51  46 SE12      29.84F

CITY           SKY/WX    TMP DP  RH WIND       PRES   REMARKS
CORONA AIRPORT CLEAR     73  53  49 W18       29.82F
*CHATSWORTH      N/A     72  47  42 W6        29.84S
CHINO          MOSUNNY   75  51  43 SW18G26   29.84S
*CLAREMONT       N/A     71  53  51 SW14        N/A
MARCH AFB      SUNNY     75  49  39 NW13      29.84S
*NORTHRIDGE      N/A     73  43  33 W3G12       N/A
ONTARIO        MOSUNNY   75  51  43 W17G25    29.82F
*PASADENA        N/A     70  55  60 CALM        N/A
POMONA         SUNNY     72  52  49 W16       29.87F
RIVERSIDE      SUNNY     74  51  44 W13G18    29.83S
SAN BERNARDINO MOSUNNY   77  46  33 W10       29.83F
*SAN RAFAEL HI   N/A     70  47  44 E7G18       N/A
*SAUGUS          N/A     77  49  36 S14G28      N/A
*WHITEMAN AP   SUNNY     70  50  49 MISG      29.89
*WOODLAND HILL   N/A     75  45  33 NW5         N/A

$$

CAZ054-055-040100-
LA AND SAN BERNARDINO COUNTY MOUNTAINS


CITY           SKY/WX    TMP DP  RH WIND       PRES   REMARKS
*ACTON           N/A     81  35  19 W9G24       N/A
*BIG BEAR AIRP PTCLDY    59  30  33 W14       30.01F
*BIG PINES       N/A     59  28  31 S3          N/A
*CHILAO          N/A     67  29  24 SW10G23     N/A
MT WILSON NWS    N/A    N/A N/A N/A MISG        N/A
SANDBERG       SUNNY     72  36  26 S15       29.94F
*WARM SPRINGS    N/A     69  39  32 S2          N/A

$$

CAZ028-029-059-060-099-040100-
ANTELOPE VALLEY AND SURROUNDING AREAS


CITY           SKY/WX    TMP DP  RH WIND       PRES   REMARKS
LANCASTER      SUNNY     80  33  18 SW22      29.82F
PALMDALE       SUNNY     78  36  21 SW23G31   29.83F
*POPPY PARK      N/A     77  33  20 SW23G35     N/A

CITY           SKY/WX    TMP DP  RH WIND       PRES   REMARKS
29 PALMS       MOSUNNY   86  31  13 VRB3      29.81F
BARSTOW/DAGGET MOSUNNY   89  23   9 W21G33    29.73F
BISHOP         PTSUNNY   79  23  12 W15G21    29.77S
CHINA LAKE     MOSUNNY   86  23  10 SW15G24   29.73F
EDWARDS AFB    SUNNY     83  29  14 SW16G28   29.78F
MOJAVE         FAIR      82  28  14 W15       29.82S
NEEDLES        MOSUNNY   93  37  14 SW8G16    29.69F
VICTORVILLE    PTSUNNY   81  28  15 W16G23    29.83S

$$

CAZ039-040-040100-
VENTURA AND SANTA BARBARA COUNTY COAST


CITY           SKY/WX    TMP DP  RH WIND       PRES   REMARKS
CAMARILLO      SUNNY     65  48  54 W13       29.88F
NWS OXNARD       N/A     63  48  59 CALM      29.87F
OXNARD AIRPORT SUNNY     63  49  60 W20       29.88F
*POINT MUGU    MOSUNNY   66  50  56 W20       29.90F
SBA APT/GOLETA SUNNY     63  49  60 W17G25    29.88F
*SANTA BARBARA   N/A     67  47  48 E5        29.96S
*VENTURA         N/A     65  47  53 SW16      29.47S

$$

CAZ044-045-040100-
VENTURA COUNTY VALLEYS


CITY           SKY/WX    TMP DP  RH WIND       PRES   REMARKS
*SIMI VALLEY     N/A     66  49  55 SW2       29.84S
*OJAI            N/A     72  51  47 W1        29.80F
*FILLMORE        N/A     73  52  48 SW3       29.75F

$$

CAZ053-040100-
VENTURA COUNTY MOUNTAINS


CITY           SKY/WX    TMP DP  RH WIND       PRES   REMARKS
*LOCKWOOD VLY    N/A     70  27  19 MISG        N/A
*ROSE VALLEY     N/A     72  41  33 MISG        N/A

$$

CAZ034-035-036-040100-
CENTRAL COAST AND SANTA YNEZ VALLEY


CITY           SKY/WX    TMP DP  RH WIND       PRES   REMARKS
SAN LUIS OBISP SUNNY     62  46  55 VRB3      29.91F
SANTA MARIA    SUNNY     65  46  50 W10       29.92S

CITY           SKY/WX    TMP DP  RH WIND       PRES   REMARKS
*CAL POLY SLO    N/A     64  50  59 W9          N/A
*LOMPOC        SUNNY     64  45  48 W14       29.93F
*PISMO BEACH     N/A     60  50  71 W5        29.93S
*SANTA YNEZ    FAIR      70  45  40 W13       29.89R

$$

CAZ037-038-051-040100-
SAN LUIS OBISPO COUNTY INTERIOR AND CUYAMA VALLEY


CITY           SKY/WX    TMP DP  RH WIND       PRES   REMARKS
*CUYAMA          N/A     77  37  23 S7        29.74S
PASO ROBLES    SUNNY     66  44  45 S13       29.88S

$$

CAZ032-033-061-040100-
SOUTHERN DESERTS


CITY           SKY/WX    TMP DP  RH WIND       PRES   REMARKS
BLYTHE         SUNNY     90  49  24 S17       29.68F
IMPERIAL       SUNNY     92  42  17 SE17      29.66F
PALM SPRINGS   MOSUNNY   93  39  15 NW20      29.70F
THERMAL        SUNNY     92  49  22 SE9G18    29.64F

$$

ELSEWHERE ACROSS THE WESTERN UNITED STATES AND MEXICO


CITY           SKY/WX    TMP DP  RH WIND       PRES   REMARKS
DENVER, CO     TSTM      57  46  66 NE15      30.04R
GRAND CANYON,  CLOUDY    55  40  56 NW8       30.07S
HONOLULU, HI   MOSUNNY   82  59  44 E14G21    29.98F
KAHULUI, MAUI  MOSUNNY   82  61  47 E22G31    29.97F
LAKE TAHOE, CA SUNNY     66  29  24 S12G18    29.97R
LAS VEGAS, NV  MOSUNNY   89  29  11 S16       29.68F
MAMMOTH LAKES, LGT RAIN  55  30  38 NE21G31   29.99R
MEXICO CITY, M PTSUNNY   73  45  35 S12       30.17R
PHOENIX, AZ    MOSUNNY   93  37  14 CALM      29.69F
PORTLAND, OR   MOSUNNY   75  40  28 W9        29.85F
RENO, NV       MOSUNNY   80  21  11 NW16G26   29.82S
SALT LAKE CITY PTSUNNY   77  29  17 CALM      29.82F
SAN DIEGO, CA  PTSUNNY   67  52  58 NW12G20   29.89F
SAN FRANCISCO, MOSUNNY   63  47  55 W17       29.89F
SAN JOSE, CA   MOSUNNY   67  50  54 NW16      29.86F
SEATTLE, WA    SUNNY     69  32  25 N7        29.92F
TIJUANA, MEX   PTSUNNY   64  50  59 W13       29.90F

$$

STATION/POSITION TIME  TEMP    WIND        PRES    VSBY  WAVE
                       AIR SEA DIR/SP/G                  HT/PER
                 (UTC) (F)     (DEG/KT/KT) (MB)    (MI)  (FT/S)
POINT ARGUELLO B NOT AVBL
WEST SANTA BARBA 0000   57 57  310/  8/ 10 1012.8F         7/21
POINT CONCEPTION NOT AVBL
EAST SANTA BARBA NOT AVBL
SANTA MONICA BAY 0000   60 63  290/ 14/ 17 1012.3F         3/16


USA.gov is the U.S. government's official web portal to all federal, state and local government web resources and services.